Regional Weather Roundup
Issued by NWS Jackson, KY

Home | Current Version | Previous Version | Text Only | Print | Product List | Glossary Off
Versions: 1 2 3 4 5 6 7 8 9 10 11 12 13 14 15 16 17 18 19 20 21 22 23 24 25 26 27 28 29 30 31 32 33 34 35 36 37 38 39 40 41 42 43 44 45 46 47 48 49 50

000
ASUS43 KJKL 190510
RWRJKL

EAST KENTUCKY HOURLY WEATHER ROUNDUP
NATIONAL WEATHER SERVICE JACKSON KY
1200 AM EST SUN FEB 19 2017

NOTE: "FAIR" INDICATES FEW OR NO CLOUDS BELOW 12,000 FEET WITH
NO SIGNIFICANT WEATHER AND/OR OBSTRUCTIONS TO VISIBILITY.

* THESE REPORTS ARE NOT UNDER NWS QUALITY CONTROL AND MAY NOT
  REPORT WEATHER SUCH AS PRECIPITATION AND FOG.

KYZ079-080-083-085-087-088-110-112-115-119-120-190600
...EASTERN KENTUCKY...

CITY           SKY/WX    TMP DP  RH WIND       PRES   REMARKS
JACKSON        FOG       47  45  93 SW3       29.95R VSB 1/4
LONDON         FOG       46  44  93 S3        29.96S VSB 1/2
SOMERSET*      CLOUDY    45  45 100 CALM      29.98S
MONTICELLO*    CLOUDY    44  44 100 CALM      29.99R
WILLIAMSBURG*  PTCLDY    46  46 100 SW3       29.97S
MIDDLESBORO*   CLOUDY    47  47 100 CALM      29.98S FOG
HARLAN APT*    CLOUDY    46  45  93 CALM      29.96S
PIKE CO APT*   CLOUDY    47  47 100 SW3       29.95S
BIG SANDY APT* CLOUDY    48  47  96 CALM      29.95S
MOREHEAD APT*  CLOUDY    48  43  81 VRB5      29.96R
ASHLAND*       CLOUDY    46  45  93 CALM      29.93R
$$

KYZ035-036-041-042-044-050-067-078-099-190600
...CENTRAL KENTUCKY...

CITY           SKY/WX    TMP DP  RH WIND       PRES   REMARKS
MT STERLING*   DRIZZLE   46  45  93 W6        29.97R
FLEMING/MASON* CLOUDY    45  44  97 SW7       29.95S
DANVILLE*      CLOUDY    45  43  93 SW3       29.98R
LEXINGTON      LGT RAIN  47  44  90 SW6       29.96R
FRANKFORT      CLOUDY    48  45  89 SW7       29.94R
LOUISVILLE     CLOUDY    50  47  89 SW5       29.95R
LEBANON*       MOCLDY    46  45  93 CALM      29.97R
GLASGOW*       MOCLDY    47  47 100 CALM      29.97R
BOWLING GREEN  MOCLDY    50  46  86 S5        29.97R
$$

KYZ091>093-OHZ055-061-077-WVZ005-015-034-035-042-190600
...SOUTHERN OHIO/WEST VIRGINIA...

CITY           SKY/WX    TMP DP  RH WIND       PRES   REMARKS
COVINGTON      CLOUDY    51  48  89 SW6       29.92R
COLUMBUS       CLOUDY    50  43  77 S6        29.87S
DAYTON         PTCLDY    47  44  90 SW13      29.89R
WILMINGTON     MOCLDY    47  45  93 SW10      29.89S
HUNTINGTON     LGT RAIN  47  45  93 CALM      29.93R
CHARLESTON     RAIN      47  44  90 S5        29.93S
PINEVILLE*     CLOUDY    46  38  73 MISG      29.98R
BECKLEY        CLOUDY    47  32  56 CALM      29.92R
BLUEFIELD      MOCLDY    47  28  47 W6        29.93R
LOGAN CO APT*  CLOUDY    48  41  76 CALM      29.93S
$$

VAZ002-007-008-TNZ017-027-036-066-071-190600
...SOUTHWEST VIRGINIA/EAST TENNESSEE...

CITY           SKY/WX    TMP DP  RH WIND       PRES   REMARKS
WISE*          CLOUDY    45  45 100 SW7       29.96R FOG
JONESVILLE*    CLOUDY    46  46 100 CALM      29.99S FOG
ABINGDON*      CLOUDY    49  40  71 W8        29.96S
BRISTOL        CLOUDY    49  43  80 S8        29.98R
MORRISTOWN*    CLOUDY    50  48  93 W8        29.97S
SEVIERVILLE*   CLOUDY    46  45  93 W3        29.98S
KNOXVILLE      CLOUDY    50  48  93 SW8       29.98R FOG
LAFOLLETTE*    CLOUDY    48  48 100 CALM      30.00S FOG
OAK RIDGE      CLOUDY    50  47  89 CALM      30.00R FOG
CROSSVILLE     CLOUDY    47  46  97 CALM      29.98R
NASHVILLE      CLOUDY    52  47  83 S3        29.97R
$$

...KEY TO REMARKS...
VSB - VISIBILITY IN MILES
WCI - WIND CHILL INDEX
HX  - HEAT INDEX

$$



USA.gov is the U.S. government's official web portal to all federal, state and local government web resources and services.